• In Hungary
  • List of Countries
  • For 7 days
  • Water Temperature
  • Satellite Maps
  • Weather Map
  • News
  • Weather Widgets
  • user-avatar
    Login

    Hourly Weather Sun City Center

    Today, 21 January, Sunday

    Time Temperature Precipitation Wind Pressure Humidity
    00:00 +17°C° 0 mm 2 mps 766 mmHg 78%
    01:00 +16°C° 0 mm 2 mps 766 mmHg 77%
    02:00 +16°C° 0 mm 2 mps 765 mmHg 79%
    03:00 +16°C° 0 mm 2 mps 765 mmHg 81%
    04:00 +16°C° 0 mm 2 mps 765 mmHg 84%
    05:00 +16°C° 0 mm 3 mps 765 mmHg 86%
    06:00 +16°C° 0 mm 3 mps 765 mmHg 88%
    07:00 +14°C° 0 mm 3 mps 765 mmHg 90%
    08:00 +17°C° 0 mm 3 mps 766 mmHg 85%
    09:00 +18°C° 0 mm 3 mps 766 mmHg 79%
    10:00 +20°C° 0 mm 3 mps 766 mmHg 74%
    11:00 +22°C° 0 mm 3 mps 766 mmHg 67%
    12:00 +24°C° 0 mm 3 mps 765 mmHg 60%
    13:00 +26°C° 0 mm 3 mps 765 mmHg 54%
    14:00 +26°C° 0 mm 3 mps 765 mmHg 52%
    15:00 +26°C° 0 mm 3 mps 764 mmHg 51%
    16:00 +27°C° 0 mm 2 mps 764 mmHg 49%
    17:00 +25°C° 0 mm 2 mps 764 mmHg 54%
    18:00 +24°C° 0 mm 3 mps 764 mmHg 59%
    19:00 +22°C° 0 mm 3 mps 764 mmHg 64%
    20:00 +21°C° 0 mm 4 mps 764 mmHg 70%
    21:00 +20°C° 0 mm 4 mps 764 mmHg 75%
    22:00 +20°C° 0 mm 5 mps 764 mmHg 80%
    23:00 +19°C° 0 mm 4 mps 764 mmHg 84%

    Tomorrow, 22 January, Monday

    Time Temperature Precipitation Wind Pressure Humidity
    00:00 +18°C° 0 mm 4 mps 764 mmHg 88%
    01:00 +18°C° 0 mm 4 mps 764 mmHg 91%
    02:00 +18°C° 0 mm 4 mps 764 mmHg 93%
    03:00 +17°C° 0 mm 4 mps 763 mmHg 94%
    04:00 +17°C° 0 mm 3 mps 763 mmHg 96%
    05:00 +17°C° 0 mm 3 mps 763 mmHg 96%
    06:00 +17°C° 0 mm 3 mps 763 mmHg 96%
    07:00 +17°C° 0 mm 3 mps 763 mmHg 96%
    08:00 +18°C° 0 mm 4 mps 764 mmHg 90%
    09:00 +20°C° 0 mm 4 mps 764 mmHg 84%
    10:00 +22°C° 0 mm 4 mps 764 mmHg 77%
    11:00 +23°C° 0 mm 4 mps 764 mmHg 71%
    12:00 +26°C° 0 mm 4 mps 764 mmHg 64%
    13:00 +27°C° 0 mm 4 mps 763 mmHg 57%
    14:00 +28°C° 0 mm 4 mps 763 mmHg 55%
    15:00 +28°C° 0 mm 3 mps 762 mmHg 53%
    16:00 +28°C° 0 mm 3 mps 761 mmHg 51%
    17:00 +27°C° 0 mm 3 mps 761 mmHg 57%
    18:00 +25°C° 0 mm 2 mps 762 mmHg 62%
    19:00 +24°C° 0 mm 2 mps 762 mmHg 68%
    20:00 +23°C° 0 mm 2 mps 762 mmHg 71%
    21:00 +22°C° 0 mm 3 mps 762 mmHg 74%
    22:00 +21°C° 0 mm 3 mps 762 mmHg 77%
    23:00 +21°C° 0 mm 3 mps 762 mmHg 79%

    Day after tomorrow, 23 January, Tuesday

    Time Temperature Precipitation Wind Pressure Humidity
    00:00 +21°C° 0 mm 3 mps 762 mmHg 81%
    01:00 +20°C° 0 mm 3 mps 762 mmHg 82%
    02:00 +20°C° 0.1 mm 3 mps 761 mmHg 83%
    03:00 +20°C° 0.1 mm 3 mps 761 mmHg 85%
    04:00 +19°C° 0.1 mm 2 mps 761 mmHg 86%
    05:00 +19°C° 0.1 mm 2 mps 761 mmHg 87%
    06:00 +19°C° 0.1 mm 2 mps 762 mmHg 88%
    07:00 +19°C° 0.1 mm 2 mps 762 mmHg 89%
    08:00 +20°C° 0 mm 2 mps 762 mmHg 84%
    09:00 +21°C° 0 mm 2 mps 763 mmHg 78%
    10:00 +24°C° 0 mm 3 mps 763 mmHg 73%
    11:00 +25°C° 0 mm 3 mps 763 mmHg 70%
    12:00 +26°C° 0 mm 4 mps 762 mmHg 66%
    13:00 +27°C° 0 mm 4 mps 762 mmHg 63%
    14:00 +26°C° 0 mm 4 mps 762 mmHg 67%
    15:00 +25°C° 0 mm 4 mps 761 mmHg 70%
    16:00 +25°C° 0 mm 5 mps 761 mmHg 74%
    17:00 +22°C° 0 mm 4 mps 761 mmHg 77%
    18:00 +21°C° 0 mm 4 mps 762 mmHg 79%
    19:00 +20°C° 0 mm 4 mps 762 mmHg 81%
    20:00 +19°C° 0 mm 4 mps 763 mmHg 78%
    21:00 +19°C° 0 mm 3 mps 763 mmHg 75%
    22:00 +18°C° 0 mm 3 mps 764 mmHg 72%
    23:00 +18°C° 0 mm 4 mps 764 mmHg 68%

    24 January, Wednesday

    Time Temperature Precipitation Wind Pressure Humidity
    00:00 +17°C° 0 mm 4 mps 764 mmHg 63%
    01:00 +17°C° 0 mm 4 mps 764 mmHg 59%
    02:00 +15°C° 0 mm 5 mps 764 mmHg 59%
    03:00 +14°C° 0 mm 5 mps 764 mmHg 59%
    04:00 +14°C° 0 mm 5 mps 764 mmHg 60%
    05:00 +13°C° 0 mm 5 mps 764 mmHg 58%
    06:00 +13°C° 0 mm 5 mps 765 mmHg 56%
    07:00 +12°C° 0 mm 5 mps 765 mmHg 54%
    08:00 +13°C° 0 mm 5 mps 766 mmHg 53%
    09:00 +13°C° 0 mm 5 mps 766 mmHg 51%
    10:00 +14°C° 0 mm 5 mps 767 mmHg 50%
    11:00 +16°C° 0 mm 5 mps 766 mmHg 44%
    12:00 +19°C° 0 mm 4 mps 766 mmHg 39%
    13:00 +20°C° 0 mm 4 mps 766 mmHg 34%
    14:00 +20°C° 0 mm 4 mps 766 mmHg 33%
    15:00 +21°C° 0 mm 5 mps 765 mmHg 33%
    16:00 +21°C° 0 mm 5 mps 765 mmHg 32%
    17:00 +20°C° 0 mm 5 mps 766 mmHg 34%
    18:00 +18°C° 0 mm 4 mps 766 mmHg 36%
    19:00 +17°C° 0 mm 4 mps 766 mmHg 39%
    20:00 +17°C° 0 mm 4 mps 767 mmHg 40%
    21:00 +15°C° 0 mm 4 mps 767 mmHg 42%
    22:00 +15°C° 0 mm 4 mps 768 mmHg 43%
    23:00 +15°C° 0 mm 4 mps 768 mmHg 44%

    25 January, Thursday

    Time Temperature Precipitation Wind Pressure Humidity
    00:00 +14°C° 0 mm 4 mps 768 mmHg 45%
    01:00 +14°C° 0 mm 4 mps 768 mmHg 46%
    02:00 +13°C° 0 mm 5 mps 768 mmHg 46%
    03:00 +13°C° 0 mm 5 mps 767 mmHg 47%
    04:00 +12°C° 0 mm 5 mps 767 mmHg 47%
    05:00 +12°C° 0 mm 5 mps 768 mmHg 47%
    06:00 +12°C° 0 mm 5 mps 768 mmHg 48%
    07:00 +10°C° 0 mm 5 mps 768 mmHg 48%
    08:00 +11°C° 0 mm 6 mps 769 mmHg 49%
    09:00 +13°C° 0 mm 6 mps 769 mmHg 49%
    10:00 +14°C° 0 mm 6 mps 770 mmHg 50%
    11:00 +16°C° 0 mm 6 mps 769 mmHg 47%
    12:00 +17°C° 0 mm 6 mps 769 mmHg 44%
    13:00 +20°C° 0 mm 6 mps 769 mmHg 42%
    14:00 +20°C° 0 mm 6 mps 768 mmHg 43%
    15:00 +21°C° 0 mm 6 mps 768 mmHg 43%
    16:00 +21°C° 0 mm 6 mps 768 mmHg 44%
    17:00 +20°C° 0 mm 6 mps 768 mmHg 50%
    18:00 +17°C° 0 mm 6 mps 768 mmHg 55%
    19:00 +16°C° 0 mm 6 mps 769 mmHg 61%
    20:00 +15°C° 0 mm 6 mps 769 mmHg 65%
    21:00 +15°C° 0 mm 6 mps 769 mmHg 68%
    22:00 +14°C° 0 mm 6 mps 770 mmHg 72%
    23:00 +14°C° 0 mm 6 mps 769 mmHg 73%

    26 January, Friday

    Time Temperature Precipitation Wind Pressure Humidity
    00:00 +13°C° 0 mm 6 mps 769 mmHg 74%
    01:00 +13°C° 0 mm 6 mps 769 mmHg 76%
    02:00 +13°C° 0 mm 6 mps 769 mmHg 77%
    03:00 +13°C° 0 mm 6 mps 769 mmHg 79%
    04:00 +13°C° 0 mm 6 mps 768 mmHg 81%
    05:00 +13°C° 0 mm 6 mps 769 mmHg 81%
    06:00 +13°C° 0 mm 6 mps 769 mmHg 82%
    07:00 +13°C° 0 mm 6 mps 769 mmHg 83%
    08:00 +15°C° 0 mm 6 mps 769 mmHg 76%
    09:00 +16°C° 0 mm 7 mps 769 mmHg 70%
    10:00 +18°C° 0 mm 8 mps 770 mmHg 63%
    11:00 +20°C° 0 mm 8 mps 769 mmHg 60%
    12:00 +22°C° 0 mm 7 mps 769 mmHg 56%
    13:00 +23°C° 0 mm 7 mps 769 mmHg 52%
    14:00 +22°C° 0 mm 7 mps 768 mmHg 53%
    15:00 +22°C° 0 mm 8 mps 768 mmHg 54%
    16:00 +22°C° 0 mm 8 mps 767 mmHg 54%
    17:00 +21°C° 0 mm 7 mps 767 mmHg 59%
    18:00 +20°C° 0 mm 7 mps 768 mmHg 63%
    19:00 +19°C° 0 mm 6 mps 768 mmHg 67%
    20:00 +17°C° 0 mm 6 mps 768 mmHg 68%
    21:00 +17°C° 0 mm 6 mps 768 mmHg 69%
    22:00 +17°C° 0 mm 5 mps 768 mmHg 70%
    23:00 +17°C° 0 mm 5 mps 768 mmHg 72%
    Show more